User: anonymous   Login
Location: Unspecified
(0.0000°N, 0.0000°E)
Time: 05:46:50
(UTC+00:00)
Language:

ONEWEB-0556 - Orbit

View from above orbital plane
View from above orbital plane
View from above satellite
View from above satellite

Ground track
Ground track

The orbit is defined by the following mean orbital elements,

1 55798U          26145.35786345 +.00000000 +00000-0 +53872-3 0 00004
2 55798  87.9165 279.0233 0002406  80.2189 279.9216 13.20771288    03
Epoch (UTC): 25 May 2026 08:35:19
Eccentricity: 0.0002406
inclination: 87.9165°
perigee height: 1180 km
apogee height: 1184 km
right ascension of ascending node: 279.0233°
argument of perigee: 80.2189°
revolutions per day: 13.20771288
mean anomaly at epoch: 279.9216°

The dashed part of the orbit path shows where the satellite is in the earth's shadow,  

DLR